Weather in Kvitok

Russia / Irkutsk Oblast     56°04′42″N   98°28′49″E
temp.,
°C
wind,
m/s
gust,
m/s
humid.,
%
clouds,
%
prec.,
mm/h
press.,
hPa
HPBL,
m
13 may, thu
thu1323:00+3ne11530 0.0 101710
02:00+1ene11594 0.0 101810
05:000e11650 0.0 101910
08:00+5e13470 0.0 1020285
11:00+9ene34335 0.0 10192082
14:00+11e23275 0.0 10182250
17:00+12ese34250 0.0 10182138
20:00+10ese23370 0.0 101892
14 may, fri
fri1423:00+3se22560 0.0 101922
02:00+2se22580 0.0 101827
05:000ese24670 0.0 101775
08:00+6sse413435 0.0 1015514
11:00+12sse462995 0.0 1012889
14:00+17s352447 0.0 10092010
17:00+18wsw3620100 0.0 10072515
20:00+11wnw7126883 0.0 1009777
15 may, sat
sat1523:00+7wnw5991100 2.4 1013897
02:00+4w5108440 3.6 1016986
05:00+2w51187100 0.1 10171002
08:00+4w4127394 0.3 10171363
11:00+8w71250100 0.1 10161814
14:00+6wsw61387100 0.8 10151236
17:00+6wsw61788100 2.8 10141214
20:00+9wsw61682100 2.9 10121135
16 may, sun
sun1623:00+10w71775100 0.1 10111126
02:00+9wsw71691100 5.3 10101041
05:00+9w61393100 5.2 10101112
08:00+6n3695100 6.8 1013393
11:00+5nw1489100 0.3 1015350
14:00+10w356564 0.3 10141077
17:00+13w4655100 0.0 10131546
20:00+10w3576100 0.1 1013274
17 may, mon
mon1723:00+5wsw2295100 0.0 101430
02:00+4w118997 0.0 101414
05:00+1wsw11865 0.0 101510
08:00+5wnw1266100 0.0 1016269
11:00+9wnw2344100 0.0 1015975
14:00+11wnw2439100 0.0 10131447
17:00+11w3545100 0.0 10111660
20:00+6n1286100 0.7 1010412